Weather History for Seretse Khama, Botswana

Change the Weather History Date:

Sunday, February 17, 2013

  Actual Average Record
Temperature  
Mean Temperature 78 °F -  
Max Temperature 89 °F 84 °F 96 °F (2012)
Min Temperature 66 °F 63 °F 62 °F (2008)
Cooling Degree Days 12    
Growing Degree Days 28 (Base 50)    
Moisture  
Dew Point 58 °F    
Average Humidity 51    
Maximum Humidity 83    
Minimum Humidity 27    
Precipitation  
Precipitation 0.00 in - - ()
Sea Level Pressure  
Sea Level Pressure 30.02 in    
Wind  
Wind Speed 7 mph ()    
Max Wind Speed 13 mph    
Max Gust Speed -    
Visibility 6.2 miles    
Events      
Averages and records for this station are not official NWS values.
T = Trace of Precipitation, MM = Missing Value Source: Averaged Metar Reports

Daily Weather History Graph

Daily Weather History Graph

Search for Another Location

Airport:

Trip Planner

Search our weather history database for the weather conditions in past years. The results will help you decide how hot, cold, wet, or windy it might be!

Date:

Astronomy

Feb. 17, 2013 Rise Set
Actual Time 6:04 AM CAT 6:55 PM CAT
Civil Twilight 5:40 AM CAT 7:19 PM CAT
Nautical Twilight 5:13 AM CAT 7:46 PM CAT
Astronomical Twilight 4:44 AM CAT 8:15 PM CAT
Moon 12:29 PM CAT (2/17) 11:38 PM CAT (2/17)
Length of Visible Light 13h 38m
Length of Day
12h 51m
Waxing Crescent, 46% of the Moon is Illuminated
Feb 17
Waxing Crescent
Feb 17
First Quarter
Feb 25
Full
Mar 4
Last Quarter
Mar 11
New

Hourly Weather History & Observations

Time (CAT) Temp. Heat Index Dew Point Humidity Pressure Visibility Wind Dir Wind Speed Gust Speed Precip Events Conditions
12:00 AM 75.2 °F - 60.8 °F 61% 30.04 in - East 10.4 mph - N/A   Clear
1:00 AM 71.6 °F - 60.8 °F 69% 30.06 in - ENE 8.1 mph - N/A   Clear
4:00 AM 69.8 °F - 60.8 °F 73% 30.06 in - ENE 6.9 mph - N/A   Clear
5:00 AM 68.0 °F - 60.8 °F 78% 30.06 in - ENE 8.1 mph - N/A   Clear
6:00 AM 66.2 °F - 60.8 °F 83% 30.09 in - ENE 8.1 mph - N/A   Clear
8:00 AM 71.6 °F - 60.8 °F 69% 30.12 in - NE 11.5 mph - N/A   Clear
9:00 AM 75.2 °F - 60.8 °F 61% 30.12 in 6.2 mi NE 12.7 mph - N/A   Partly Cloudy
10:00 AM 77.0 °F - 60.8 °F 57% 30.12 in 6.2 mi NE 11.5 mph - N/A   Scattered Clouds
11:00 AM 80.6 °F 81.5 °F 60.8 °F 51% 30.09 in 6.2 mi NE 8.1 mph - N/A   Partly Cloudy
12:00 PM 82.4 °F 82.5 °F 59.0 °F 45% 30.06 in 6.2 mi NE 9.2 mph - N/A   Partly Cloudy
1:00 PM 84.2 °F 83.5 °F 57.2 °F 40% 30.04 in 6.2 mi NNE 5.8 mph - N/A   Partly Cloudy
2:00 PM 86.0 °F 84.5 °F 55.4 °F 35% 30.01 in 6.2 mi NNE 5.8 mph - N/A   Partly Cloudy
3:00 PM 87.8 °F 86.1 °F 55.4 °F 33% 29.98 in 6.2 mi ENE 6.9 mph - N/A   Scattered Clouds
4:00 PM 89.6 °F 87.3 °F 53.6 °F 29% 29.95 in 6.2 mi NE 8.1 mph - N/A   Partly Cloudy
5:00 PM 89.6 °F - 51.8 °F 27% 29.92 in 6.2 mi East 6.9 mph - N/A   Partly Cloudy
6:00 PM 87.8 °F 85.7 °F 53.6 °F 31% 29.92 in 6.2 mi ENE 4.6 mph - N/A   Partly Cloudy
7:00 PM 84.2 °F 83.0 °F 55.4 °F 37% 29.92 in 6.2 mi NE 4.6 mph - N/A   Partly Cloudy
8:00 PM 82.4 °F 81.7 °F 55.4 °F 39% 29.92 in - East 3.5 mph - N/A   Clear
9:00 PM 80.6 °F 80.8 °F 57.2 °F 45% 29.95 in - East 4.6 mph - N/A   Clear
10:00 PM 77.0 °F - 57.2 °F 50% 29.95 in - East 4.6 mph - N/A   Clear